Location: Tafessasset
(32.5899°N, 5.4824°W)
Time: 10:09:04
(UTC+00:00)

CZ-3 R/B - Pass Details

Date: 18 February 2020
Orbit: 351 x 10264 km, 28.4° (Epoch: 28 March)

Event Time Altitude Azimuth Distance (km) Brightness Sun altitude
Rises 03:47:36 0° 286° (WNW) 15,129 7.2 -41.5°
Enters shadow 03:59:05 - 284° (WNW) 13,908 6.9 -39.2°
Exits shadow 04:41:27 38° 260° (W) 6,323 5.0 -30.4°
Maximum altitude 04:51:02 47° 223° (SW) 4,229 4.3 -28.3°
Drops below altitude 10° 05:02:29 10° 151° (SSE) 3,949 4.9 -25.9°
Sets 05:04:41 0° 144° (SE) 4,411 5.4 -25.5°
